Time,TemperatureF,DewpointF,PressureIn,WindDirection,WindDirectionDegrees,WindSpeedMPH,WindSpeedGustMPH,Humidity,HourlyPrecipIn,Conditions,Clouds,dailyrainin,SoftwareType,DateUTC
2013-04-02 00:03:00,21.0,15.0,29.98,SW,236,11.0,-999.0,78,-99.99,,,-99.99,,2013-04-02 04:03:00,
2013-04-02 00:13:00,21.0,15.0,29.98,SW,236,11.0,-999.0,78,-99.99,,,-99.99,,2013-04-02 04:13:00,
2013-04-02 00:23:00,21.0,15.0,29.98,NW,320,7.0,-999.0,78,-99.99,,,-99.99,,2013-04-02 04:23:00,
2013-04-02 00:33:00,21.0,16.0,29.99,SW,229,8.0,-999.0,79,-99.99,,,-99.99,,2013-04-02 04:33:00,
2013-04-02 00:43:00,21.0,16.0,29.99,SW,229,8.0,-999.0,79,-99.99,,,-99.99,,2013-04-02 04:43:00,
2013-04-02 00:53:00,21.0,15.0,29.99,WSW,246,8.0,-999.0,78,-99.99,,,-99.99,,2013-04-02 04:53:00,
2013-04-02 01:02:00,21.0,16.0,29.99,WNW,296,8.0,-999.0,79,-99.99,,,-99.99,,2013-04-02 05:02:00,
2013-04-02 01:12:00,21.0,16.0,29.99,WNW,296,8.0,-999.0,79,-99.99,,,-99.99,,2013-04-02 05:12:00,
2013-04-02 01:22:00,21.0,15.0,29.99,SW,232,9.0,-999.0,78,-99.99,,,-99.99,,2013-04-02 05:22:00,
2013-04-02 01:32:00,20.0,15.0,29.99,NW,310,10.0,-999.0,79,-99.99,,,-99.99,,2013-04-02 05:32:00,
2013-04-02 01:43:00,20.0,15.0,29.99,NW,310,10.0,-999.0,79,-99.99,,,-99.99,,2013-04-02 05:43:00,
2013-04-02 01:52:00,20.0,15.0,29.99,WNW,284,8.0,-999.0,81,-99.99,,,-99.99,,2013-04-02 05:52:00,
2013-04-02 02:02:00,20.0,15.0,29.99,WSW,249,9.0,-999.0,81,-99.99,,,-99.99,,2013-04-02 06:02:00,
2013-04-02 02:12:00,20.0,15.0,29.99,WSW,249,9.0,-999.0,81,-99.99,,,-99.99,,2013-04-02 06:12:00,
2013-04-02 02:22:00,20.0,15.0,29.99,WSW,253,8.0,-999.0,82,-99.99,,,-99.99,,2013-04-02 06:22:00,
2013-04-02 02:32:00,20.0,15.0,29.98,West,275,8.0,-999.0,82,-99.99,,,-99.99,,2013-04-02 06:32:00,
2013-04-02 02:42:00,20.0,15.0,29.98,West,275,8.0,-999.0,82,-99.99,,,-99.99,,2013-04-02 06:42:00,
2013-04-02 02:52:00,19.0,14.0,29.98,WNW,297,9.0,-999.0,82,-99.99,,,-99.99,,2013-04-02 06:52:00,
2013-04-02 03:02:00,19.0,15.0,29.98,WNW,302,10.0,-999.0,83,-99.99,,,-99.99,,2013-04-02 07:02:00,
2013-04-02 03:13:00,19.0,15.0,29.98,WNW,302,10.0,-999.0,83,-99.99,,,-99.99,,2013-04-02 07:13:00,
2013-04-02 03:22:00,19.0,15.0,29.98,West,275,6.0,-999.0,84,-99.99,,,-99.99,,2013-04-02 07:22:00,
2013-04-02 03:32:00,19.0,15.0,29.99,SW,229,8.0,-999.0,84,-99.99,,,-99.99,,2013-04-02 07:32:00,
2013-04-02 03:43:00,19.0,15.0,29.99,SW,229,8.0,-999.0,84,-99.99,,,-99.99,,2013-04-02 07:43:00,
2013-04-02 03:52:00,18.0,14.0,29.98,WNW,288,9.0,-999.0,84,-99.99,,,-99.99,,2013-04-02 07:52:00,
2013-04-02 04:02:00,18.0,14.0,29.99,West,267,7.0,-999.0,85,-99.99,,,-99.99,,2013-04-02 08:02:00,
2013-04-02 04:13:00,18.0,14.0,29.99,West,267,7.0,-999.0,85,-99.99,,,-99.99,,2013-04-02 08:13:00,
2013-04-02 04:22:00,18.0,14.0,29.99,West,267,7.0,-999.0,85,-99.99,,,-99.99,,2013-04-02 08:22:00,
2013-04-02 04:32:00,18.0,14.0,30.00,WSW,254,8.0,-999.0,85,-99.99,,,-99.99,,2013-04-02 08:32:00,
2013-04-02 04:42:00,18.0,14.0,30.00,WSW,254,8.0,-999.0,85,-99.99,,,-99.99,,2013-04-02 08:42:00,
2013-04-02 04:52:00,18.0,14.0,30.00,West,262,7.0,-999.0,85,-99.99,,,-99.99,,2013-04-02 08:52:00,
2013-04-02 05:02:00,18.0,14.0,30.00,WNW,283,7.0,-999.0,84,-99.99,,,-99.99,,2013-04-02 09:02:00,
2013-04-02 05:12:00,18.0,14.0,30.00,WNW,283,7.0,-999.0,84,-99.99,,,-99.99,,2013-04-02 09:12:00,
2013-04-02 05:22:00,18.0,14.0,30.01,NNW,333,8.0,-999.0,84,-99.99,,,-99.99,,2013-04-02 09:22:00,
2013-04-02 05:33:00,17.0,13.0,30.01,SSW,213,8.0,-999.0,84,-99.99,,,-99.99,,2013-04-02 09:33:00,
2013-04-02 05:43:00,17.0,13.0,30.01,SSW,213,8.0,-999.0,84,-99.99,,,-99.99,,2013-04-02 09:43:00,
2013-04-02 05:52:00,17.0,13.0,30.02,West,263,8.0,-999.0,83,-99.99,,,-99.99,,2013-04-02 09:52:00,
2013-04-02 06:03:00,17.0,13.0,30.02,West,272,8.0,-999.0,84,-99.99,,,-99.99,,2013-04-02 10:03:00,
2013-04-02 06:13:00,17.0,13.0,30.02,West,272,8.0,-999.0,84,-99.99,,,-99.99,,2013-04-02 10:13:00,
2013-04-02 06:23:00,17.0,13.0,30.03,West,263,6.0,-999.0,85,-99.99,,,-99.99,,2013-04-02 10:23:00,
2013-04-02 06:33:00,16.0,12.0,30.04,WSW,240,7.0,-999.0,85,-99.99,,,-99.99,,2013-04-02 10:33:00,
2013-04-02 06:42:00,16.0,12.0,30.04,WSW,240,7.0,-999.0,85,-99.99,,,-99.99,,2013-04-02 10:42:00,
2013-04-02 06:52:00,16.0,12.0,30.05,SW,234,6.0,-999.0,85,-99.99,,,-99.99,,2013-04-02 10:52:00,
2013-04-02 07:02:00,16.0,12.0,30.05,SW,223,8.0,-999.0,85,-99.99,,,-99.99,,2013-04-02 11:02:00,
2013-04-02 07:12:00,16.0,12.0,30.05,SW,223,8.0,-999.0,85,-99.99,,,-99.99,,2013-04-02 11:12:00,
2013-04-02 07:22:00,15.0,11.0,30.06,WSW,257,8.0,-999.0,85,-99.99,,,-99.99,,2013-04-02 11:22:00,
2013-04-02 07:33:00,15.0,12.0,30.08,WSW,248,7.0,-999.0,86,-99.99,,,-99.99,,2013-04-02 11:33:00,
2013-04-02 07:43:00,15.0,12.0,30.08,WSW,248,7.0,-999.0,86,-99.99,,,-99.99,,2013-04-02 11:43:00,
2013-04-02 07:52:00,15.0,11.0,30.09,WSW,254,8.0,-999.0,84,-99.99,,,-99.99,,2013-04-02 11:52:00,
2013-04-02 08:02:00,15.0,11.0,30.09,West,261,9.0,-999.0,82,-99.99,,,-99.99,,2013-04-02 12:02:00,
2013-04-02 08:12:00,15.0,11.0,30.09,West,261,9.0,-999.0,82,-99.99,,,-99.99,,2013-04-02 12:12:00,
2013-04-02 08:23:00,15.0,10.0,30.11,West,261,9.0,-999.0,81,-99.99,,,-99.99,,2013-04-02 12:23:00,
2013-04-02 08:32:00,15.0,10.0,30.11,WSW,253,9.0,-999.0,81,-99.99,,,-99.99,,2013-04-02 12:32:00,
2013-04-02 08:42:00,15.0,10.0,30.11,WSW,253,9.0,-999.0,81,-99.99,,,-99.99,,2013-04-02 12:42:00,
2013-04-02 08:52:00,15.0,11.0,30.12,West,259,10.0,-999.0,82,-99.99,,,-99.99,,2013-04-02 12:52:00,
2013-04-02 09:02:00,16.0,12.0,30.13,WSW,238,10.0,-999.0,83,-99.99,,,-99.99,,2013-04-02 13:02:00,
2013-04-02 09:12:00,16.0,12.0,30.13,WSW,245,10.0,-999.0,83,-99.99,,,-99.99,,2013-04-02 13:12:00,
2013-04-02 09:22:00,16.0,12.0,30.13,WSW,245,10.0,-999.0,83,-99.99,,,-99.99,,2013-04-02 13:22:00,
2013-04-02 09:33:00,16.0,11.0,30.13,WSW,244,13.0,-999.0,82,-99.99,,,-99.99,,2013-04-02 13:33:00,
2013-04-02 09:42:00,16.0,11.0,30.13,WSW,244,13.0,-999.0,82,-99.99,,,-99.99,,2013-04-02 13:42:00,
2013-04-02 09:52:00,16.0,12.0,30.13,SW,235,12.0,-999.0,83,-99.99,,,-99.99,,2013-04-02 13:52:00,
2013-04-02 10:02:00,17.0,13.0,30.14,WSW,247,12.0,-999.0,83,-99.99,,,-99.99,,2013-04-02 14:02:00,
2013-04-02 10:12:00,17.0,13.0,30.14,WSW,247,12.0,-999.0,83,-99.99,,,-99.99,,2013-04-02 14:12:00,
2013-04-02 10:23:00,17.0,12.0,30.14,SW,221,11.0,-999.0,82,-99.99,,,-99.99,,2013-04-02 14:23:00,
2013-04-02 10:32:00,17.0,12.0,30.15,West,265,12.0,-999.0,80,-99.99,,,-99.99,,2013-04-02 14:32:00,
2013-04-02 10:42:00,17.0,12.0,30.15,West,265,12.0,-999.0,80,-99.99,,,-99.99,,2013-04-02 14:42:00,
2013-04-02 10:52:00,18.0,12.0,30.16,WSW,238,10.0,-999.0,78,-99.99,,,-99.99,,2013-04-02 14:52:00,
2013-04-02 11:02:00,19.0,13.0,30.16,WSW,254,9.0,-999.0,76,-99.99,,,-99.99,,2013-04-02 15:02:00,
2013-04-02 11:11:00,19.0,13.0,30.16,WSW,254,9.0,-999.0,76,-99.99,,,-99.99,,2013-04-02 15:11:00,
2013-04-02 11:22:00,20.0,13.0,30.16,SSW,212,10.0,-999.0,74,-99.99,,,-99.99,,2013-04-02 15:22:00,
2013-04-02 11:33:00,21.0,14.0,30.17,WSW,256,11.0,-999.0,74,-99.99,,,-99.99,,2013-04-02 15:33:00,
2013-04-02 11:43:00,21.0,14.0,30.17,WSW,256,11.0,-999.0,74,-99.99,,,-99.99,,2013-04-02 15:43:00,
2013-04-02 11:58:00,22.0,13.0,30.17,West,259,10.0,-999.0,69,-99.99,,,-99.99,,2013-04-02 15:58:00,
2013-04-02 12:04:00,23.0,13.0,30.17,West,263,10.0,-999.0,66,-99.99,,,-99.99,,2013-04-02 16:04:00,
2013-04-02 12:13:00,23.0,13.0,30.17,West,263,10.0,-999.0,66,-99.99,,,-99.99,,2013-04-02 16:13:00,
2013-04-02 12:24:00,23.0,12.0,30.18,WNW,290,12.0,-999.0,63,-99.99,,,-99.99,,2013-04-02 16:24:00,
2013-04-02 12:37:00,23.0,12.0,30.18,WNW,291,9.0,-999.0,62,-99.99,,,-99.99,,2013-04-02 16:37:00,
2013-04-02 12:44:00,23.0,12.0,30.18,WNW,291,9.0,-999.0,62,-99.99,,,-99.99,,2013-04-02 16:44:00,
2013-04-02 12:53:00,24.0,13.0,30.18,West,269,9.0,-999.0,61,-99.99,,,-99.99,,2013-04-02 16:53:00,
2013-04-02 13:05:00,25.0,12.0,30.18,WSW,252,10.0,-999.0,57,-99.99,,,-99.99,,2013-04-02 17:05:00,
2013-04-02 13:13:00,25.0,12.0,30.18,WSW,252,10.0,-999.0,57,-99.99,,,-99.99,,2013-04-02 17:13:00,
2013-04-02 13:25:00,25.0,11.0,30.19,West,262,11.0,-999.0,55,-99.99,,,-99.99,,2013-04-02 17:25:00,
2013-04-02 13:35:00,26.0,11.0,30.18,WSW,248,8.0,-999.0,53,-99.99,,,-99.99,,2013-04-02 17:35:00,
2013-04-02 13:43:00,26.0,11.0,30.18,WSW,248,8.0,-999.0,53,-99.99,,,-99.99,,2013-04-02 17:43:00,
2013-04-02 13:56:00,26.0,12.0,30.19,WSW,246,10.0,-999.0,54,-99.99,,,-99.99,,2013-04-02 17:56:00,
2013-04-02 14:04:00,26.0,9.0,30.18,West,265,13.0,-999.0,49,-99.99,,,-99.99,,2013-04-02 18:04:00,
2013-04-02 14:13:00,26.0,9.0,30.18,West,265,13.0,-999.0,49,-99.99,,,-99.99,,2013-04-02 18:13:00,
2013-04-02 14:23:00,27.0,10.0,30.18,SSW,212,12.0,-999.0,49,-99.99,,,-99.99,,2013-04-02 18:23:00,
2013-04-02 14:34:00,28.0,13.0,30.18,NW,313,10.0,-999.0,53,-99.99,,,-99.99,,2013-04-02 18:34:00,
2013-04-02 14:43:00,28.0,13.0,30.18,NW,313,10.0,-999.0,53,-99.99,,,-99.99,,2013-04-02 18:43:00,
2013-04-02 14:57:00,28.0,10.0,30.18,West,261,11.0,-999.0,47,-99.99,,,-99.99,,2013-04-02 18:57:00,
2013-04-02 15:03:00,29.0,11.0,30.17,WSW,237,9.0,-999.0,47,-99.99,,,-99.99,,2013-04-02 19:03:00,
2013-04-02 15:13:00,29.0,11.0,30.17,WSW,237,9.0,-999.0,47,-99.99,,,-99.99,,2013-04-02 19:13:00,
2013-04-02 15:23:00,28.0,9.0,30.17,SSW,213,12.0,-999.0,45,-99.99,,,-99.99,,2013-04-02 19:23:00,
2013-04-02 15:34:00,28.0,10.0,30.17,SW,236,11.0,-999.0,46,-99.99,,,-99.99,,2013-04-02 19:34:00,
2013-04-02 15:45:00,28.0,10.0,30.17,SW,236,11.0,-999.0,46,-99.99,,,-99.99,,2013-04-02 19:45:00,
2013-04-02 15:57:00,28.0,9.0,30.16,WSW,240,12.0,-999.0,45,-99.99,,,-99.99,,2013-04-02 19:57:00,
2013-04-02 16:03:00,28.0,9.0,30.16,WSW,240,12.0,-999.0,45,-99.99,,,-99.99,,2013-04-02 20:03:00,
2013-04-02 16:14:00,28.0,9.0,30.16,WSW,240,12.0,-999.0,45,-99.99,,,-99.99,,2013-04-02 20:14:00,
2013-04-02 16:33:00,29.0,8.0,30.16,WSW,257,11.0,-999.0,41,-99.99,,,-99.99,,2013-04-02 20:33:00,
2013-04-02 16:44:00,29.0,8.0,30.16,WSW,257,11.0,-999.0,41,-99.99,,,-99.99,,2013-04-02 20:44:00,
2013-04-02 16:55:00,29.0,8.0,30.16,WSW,257,11.0,-999.0,41,-99.99,,,-99.99,,2013-04-02 20:55:00,
2013-04-02 17:13:00,30.0,10.0,30.16,West,271,10.0,-999.0,42,-99.99,,,-99.99,,2013-04-02 21:13:00,
2013-04-02 17:23:00,30.0,11.0,30.16,WSW,245,9.0,-999.0,45,-99.99,,,-99.99,,2013-04-02 21:23:00,
2013-04-02 17:35:00,30.0,10.0,30.16,SW,228,11.0,-999.0,43,-99.99,,,-99.99,,2013-04-02 21:35:00,
2013-04-02 17:44:00,30.0,10.0,30.16,SW,228,11.0,-999.0,43,-99.99,,,-99.99,,2013-04-02 21:44:00,
2013-04-02 17:56:00,29.0,8.0,30.18,WSW,247,13.0,-999.0,41,-99.99,,,-99.99,,2013-04-02 21:56:00,
2013-04-02 18:04:00,28.0,7.0,30.18,SW,221,13.0,-999.0,41,-99.99,,,-99.99,,2013-04-02 22:04:00,
2013-04-02 18:14:00,28.0,7.0,30.18,SW,221,13.0,-999.0,41,-99.99,,,-99.99,,2013-04-02 22:14:00,
2013-04-02 18:24:00,28.0,9.0,30.19,SW,222,12.0,-999.0,44,-99.99,,,-99.99,,2013-04-02 22:24:00,
2013-04-02 18:33:00,28.0,10.0,30.19,WSW,255,11.0,-999.0,47,-99.99,,,-99.99,,2013-04-02 22:33:00,
2013-04-02 18:43:00,28.0,10.0,30.19,WSW,255,11.0,-999.0,47,-99.99,,,-99.99,,2013-04-02 22:43:00,
2013-04-02 18:54:00,28.0,10.0,30.19,West,263,11.0,-999.0,46,-99.99,,,-99.99,,2013-04-02 22:54:00,
2013-04-02 19:03:00,27.0,10.0,30.20,West,271,9.0,-999.0,48,-99.99,,,-99.99,,2013-04-02 23:03:00,
2013-04-02 19:13:00,27.0,10.0,30.20,West,271,9.0,-999.0,48,-99.99,,,-99.99,,2013-04-02 23:13:00,
2013-04-02 19:23:00,27.0,9.0,30.20,WSW,248,8.0,-999.0,47,-99.99,,,-99.99,,2013-04-02 23:23:00,
2013-04-02 19:35:00,26.0,9.0,30.20,NW,309,10.0,-999.0,48,-99.99,,,-99.99,,2013-04-02 23:35:00,
2013-04-02 19:43:00,26.0,9.0,30.20,NW,309,10.0,-999.0,48,-99.99,,,-99.99,,2013-04-02 23:43:00,
2013-04-02 19:54:00,25.0,9.0,30.21,WSW,252,11.0,-999.0,50,-99.99,,,-99.99,,2013-04-02 23:54:00,
2013-04-02 20:04:00,24.0,9.0,30.21,WSW,248,8.0,-999.0,52,-99.99,,,-99.99,,2013-04-03 00:04:00,
2013-04-02 20:13:00,24.0,9.0,30.21,WSW,248,8.0,-999.0,52,-99.99,,,-99.99,,2013-04-03 00:13:00,
2013-04-02 20:25:00,24.0,10.0,30.21,West,259,8.0,-999.0,54,-99.99,,,-99.99,,2013-04-03 00:25:00,
2013-04-02 20:47:00,23.0,9.0,30.22,SW,236,8.0,-999.0,55,-99.99,,,-99.99,,2013-04-03 00:47:00,
2013-04-02 20:57:00,23.0,10.0,30.22,WNW,296,7.0,-999.0,56,-99.99,,,-99.99,,2013-04-03 00:57:00,
2013-04-02 21:04:00,23.0,10.0,30.22,West,259,9.0,-999.0,56,-99.99,,,-99.99,,2013-04-03 01:04:00,
2013-04-02 21:13:00,23.0,10.0,30.22,West,259,9.0,-999.0,56,-99.99,,,-99.99,,2013-04-03 01:13:00,
2013-04-02 21:23:00,22.0,9.0,30.22,West,264,7.0,-999.0,57,-99.99,,,-99.99,,2013-04-03 01:23:00,
2013-04-02 21:33:00,22.0,9.0,30.22,West,264,7.0,-999.0,57,-99.99,,,-99.99,,2013-04-03 01:33:00,
2013-04-02 21:42:00,22.0,9.0,30.22,West,264,7.0,-999.0,57,-99.99,,,-99.99,,2013-04-03 01:42:00,
2013-04-02 21:54:00,22.0,10.0,30.23,WSW,242,6.0,-999.0,58,-99.99,,,-99.99,,2013-04-03 01:54:00,
2013-04-02 22:03:00,22.0,10.0,30.23,West,276,6.0,-999.0,59,-99.99,,,-99.99,,2013-04-03 02:03:00,
2013-04-02 22:13:00,22.0,10.0,30.23,West,276,6.0,-999.0,59,-99.99,,,-99.99,,2013-04-03 02:13:00,
2013-04-02 22:24:00,22.0,10.0,30.23,WNW,299,7.0,-999.0,59,-99.99,,,-99.99,,2013-04-03 02:24:00,
2013-04-02 22:34:00,22.0,10.0,30.23,West,277,9.0,-999.0,59,-99.99,,,-99.99,,2013-04-03 02:34:00,
2013-04-02 22:44:00,22.0,10.0,30.23,West,277,9.0,-999.0,59,-99.99,,,-99.99,,2013-04-03 02:44:00,
2013-04-02 22:53:00,22.0,10.0,30.23,WNW,300,7.0,-999.0,60,-99.99,,,-99.99,,2013-04-03 02:53:00,
2013-04-02 23:05:00,22.0,11.0,30.23,West,259,7.0,-999.0,62,-99.99,,,-99.99,,2013-04-03 03:05:00,
2013-04-02 23:14:00,22.0,11.0,30.23,West,259,7.0,-999.0,62,-99.99,,,-99.99,,2013-04-03 03:14:00,
2013-04-02 23:23:00,21.0,10.0,30.23,WSW,248,7.0,-999.0,62,-99.99,,,-99.99,,2013-04-03 03:23:00,
2013-04-02 23:37:00,21.0,10.0,30.23,WSW,255,6.0,-999.0,63,-99.99,,,-99.99,,2013-04-03 03:37:00,
2013-04-02 23:44:00,21.0,10.0,30.23,WSW,255,6.0,-999.0,63,-99.99,,,-99.99,,2013-04-03 03:44:00,
2013-04-02 23:54:00,21.0,11.0,30.23,West,263,6.0,-999.0,64,-99.99,,,-99.99,,2013-04-03 03:54:00,